Location: Chełmce
(52.6141°N, 18.4479°E)
Time: 01:56:28
(UTC+01:00)

ISS - Visible Passes

Search period start: 23 January 2019 00:00
Search period end: 02 February 2019 00:00
Orbit: 404 x 411 km, 51.6° (Epoch: 23 January)

Date Brightness Start Highest point End Pass type
(mag) Time Alt. Az. Time Alt. Az. Time Alt. Az.
23 Jan -1.3 18:40:18 10° SSW 18:41:04 14° S 18:41:04 14° S visible
24 Jan -1.6 17:49:58 10° S 17:51:40 13° SE 17:52:03 13° SE visible
24 Jan -0.7 19:24:27 10° SW 19:24:46 12° SW 19:24:46 12° SW visible
25 Jan -2.4 18:33:21 10° SW 18:35:40 29° S 18:35:40 29° S visible
26 Jan -2.2 17:42:26 10° SSW 17:45:08 23° SSE 17:46:30 18° ESE visible
26 Jan -1.3 19:18:02 10° WSW 19:19:13 20° WSW 19:19:13 20° WSW visible
27 Jan -3.4 18:26:46 10° WSW 18:29:59 50° SSE 18:30:00 50° SSE visible
28 Jan -2.9 17:35:35 10° SW 17:38:40 38° SSE 17:40:44 18° E visible
28 Jan -1.8 19:11:42 10° W 19:13:26 28° WSW 19:13:26 28° WSW visible
29 Jan -3.8 18:20:20 10° WSW 18:23:37 68° S 18:24:08 55° ESE visible
29 Jan -0.2 19:56:47 10° W 19:56:51 10° W 19:56:51 10° W visible
30 Jan -3.4 17:28:59 10° WSW 17:32:14 56° SSE 17:34:49 15° E visible
30 Jan -2.3 19:05:22 10° W 19:07:31 37° W 19:07:31 37° W visible
31 Jan -3.8 18:13:57 10° W 18:17:15 77° S 18:18:11 43° ESE visible
31 Jan -0.5 19:50:27 10° W 19:50:54 13° W 19:50:54 13° W visible
01 Feb -3.7 17:22:31 10° WSW 17:25:48 72° S 17:28:51 12° E visible
01 Feb -2.8 18:59:00 10° W 19:01:34 46° WSW 19:01:34 46° WSW visible
